GW3137 Weather Reports


time (UTC)temp
F
wind
direction
speed
knots
gust
knots
rain 1hr
in
rain 24hr
in
rain mn
in
humidity
%
barometer
mb
20260831083204 61 31 1.7 7.0 0.00 0.00 0.00 80 1015.5
20260831080704 61 30 1.7 2.6 0.00 0.00 0.00 79 1015.7
20260831073703 61 32 0.9 2.6 0.00 0.00 0.00 76 1015.9
20260831073204 61 32 0.9 2.6 0.00 0.00 0.00 76 1015.9
20260831070704 62 32 0.9 1.7 0.00 0.00 0.00 74 1016.2
20260831070203 62 32 0.9 2.6 0.00 0.00 0.00 74 1016.2
20260831063704 62 32 0.0 0.9 0.00 0.00 0.00 72 1016.4
20260831060703 63 32 0.9 1.7 0.00 0.00 0.00 71 1016.7
20260831060203 63 32 0.9 4.3 0.00 0.00 0.00 70 1016.7
20260831053703 63 28 0.9 2.6 0.00 0.00 0.00 71 1017.0
20260831053204 64 24 0.9 2.6 0.00 0.00 0.00 71 1017.1
20260831050703 64 14 0.9 2.6 0.00 0.00 0.00 71 1017.2
20260831043703 65 17 0.9 1.7 0.00 0.00 0.00 69 1017.3
20260831043203 65 39 0.9 4.3 0.00 0.00 0.00 68 1017.4
20260831040704 66 356 0.9 2.6 0.00 0.00 0.00 66 1017.4
20260831040204 66 355 1.7 4.3 0.00 0.00 0.00 66 1017.3
20260831033704 67 326 1.7 6.1 0.00 0.00 0.00 62 1017.3
20260831030203 68 343 0.9 2.6 0.00 0.00 0.00 59 1017.1
20260831023704 69 299 1.7 2.6 0.00 0.00 0.00 56 1017.2
20260831020704 70 331 1.7 6.1 0.00 0.00 0.00 55 1017.4
20260831020204 71 279 1.7 8.7 0.00 0.00 0.00 55 1017.4
20260831013703 72 19 0.9 2.6 0.00 0.00 0.00 52 1017.5
20260831013204 73 306 1.7 7.8 0.00 0.00 0.00 50 1017.5
20260831010704 74 284 1.7 2.6 0.00 0.00 0.00 49 1017.7
20260831010204 74 287 1.7 7.0 0.00 0.00 0.00 49 1017.7
20260831003704 74 227 0.9 5.2 0.00 0.00 0.00 48 1017.9
20260831003204 75 316 1.7 7.0 0.00 0.00 0.00 48 1017.9
20260831000704 73 352 1.7 5.2 0.00 0.00 0.00 50 1018.1
20260831000204 73 277 2.6 7.0 0.00 0.00 0.00 50 1018.2
20260830233704 74 26 1.7 4.3 0.00 0.00 0.00 52 1018.4
20260830233204 73 291 1.7 7.0 0.00 0.00 0.00 52 1018.3
20260830230704 74 22 2.6 7.8 0.00 0.00 0.00 51 1018.4
20260830230204 74 246 3.5 8.7 0.00 0.00 0.00 51 1018.4
20260830223704 73 287 4.3 8.7 0.00 0.00 0.00 53 1018.8
20260830223204 73 268 3.5 8.7 0.00 0.00 0.00 52 1018.8
20260830220704 74 167 2.6 5.2 0.00 0.00 0.00 52 1018.8
20260830220204 74 219 2.6 8.7 0.00 0.00 0.00 52 1018.9
20260830213203 72 264 2.6 6.1 0.00 0.00 0.00 56 1019.3
20260830210204 72 277 2.6 10.4 0.00 0.00 0.00 55 1019.5
20260830203704 70 75 1.7 4.3 0.00 0.00 0.00 58 1019.7
20260830203203 70 55 0.9 7.0 0.00 0.00 0.00 59 1019.7
20260830200703 68 97 2.6 5.2 0.00 0.00 0.00 62 1020.0
20260830200204 67 160 4.3 7.0 0.00 0.00 0.00 63 1020.0
20260830193704 66 171 1.7 2.6 0.00 0.00 0.00 65 1020.2
20260830193204 67 259 0.9 7.8 0.00 0.00 0.00 64 1020.1
20260830190704 67 236 3.5 7.8 0.00 0.00 0.00 64 1020.2
20260830183204 65 206 2.6 7.8 0.00 0.00 0.00 67 1020.2
20260830180703 63 166 2.6 5.2 0.00 0.00 0.00 70 1020.4
20260830173204 63 290 0.9 6.1 0.00 0.00 0.00 70 1020.4
20260830170704 62 169 0.9 2.6 0.00 0.00 0.00 71 1020.4
20260830163704 61 293 1.7 2.6 0.00 0.00 0.00 73 1020.4
20260830163204 61 158 3.5 6.1 0.00 0.00 0.00 72 1020.4
20260830160703 60 215 0.9 2.6 0.00 0.00 0.00 75 1020.5
20260830153704 60 198 1.7 5.2 0.00 0.02 0.00 76 1020.4
20260830153204 60 241 0.9 4.3 0.00 0.02 0.00 76 1020.4
20260830150204 59 123 0.9 2.6 0.00 0.03 0.00 78 1020.4
20260830143704 58 107 0.9 1.7 0.00 0.09 0.00 80 1020.4
20260830143205 58 107 0.0 1.7 0.00 0.10 0.00 81 1020.3
20260830140704 57 107 0.0 2.6 0.00 0.30 0.00 82 1020.0
20260830140204 57 107 0.0 2.6 0.00 0.31 0.00 82 1019.9
20260830133704 57 111 0.9 2.6 0.00 0.36 0.00 83 1019.9
20260830133204 57 111 0.9 1.7 0.00 0.36 0.00 83 1019.9
20260830130704 57 99 0.9 2.6 0.00 0.36 0.00 83 1019.9
20260830130203 57 99 0.9 2.6 0.00 0.36 0.00 83 1019.8
20260830123704 57 139 0.0 0.9 0.00 0.36 0.00 82 1019.9
20260830123204 57 139 0.9 2.6 0.00 0.36 0.00 82 1019.9
20260830120703 58 139 0.0 0.9 0.00 0.36 0.00 82 1019.9
20260830120204 58 139 0.0 1.7 0.00 0.36 0.00 82 1019.9
20260830113204 58 139 0.9 1.7 0.00 0.36 0.00 82 1019.8
20260830110704 57 139 0.9 2.6 0.00 0.36 0.00 82 1019.8
20260830110204 57 139 0.9 2.6 0.00 0.36 0.00 82 1019.7
20260830103704 57 127 0.0 1.7 0.00 0.36 0.00 83 1019.8
20260830103204 57 134 1.7 2.6 0.00 0.36 0.00 82 1019.8
20260830100704 57 113 0.0 0.0 0.00 0.36 0.00 83 1019.7
20260830100203 57 132 0.9 2.6 0.00 0.36 0.00 83 1019.6
20260830093704 57 126 0.9 2.6 0.00 0.36 0.00 82 1019.6
20260830093204 57 80 0.0 2.6 0.00 0.36 0.00 82 1019.6
20260830090704 58 115 0.9 1.7 0.00 0.36 0.00 81 1019.7
20260830090204 58 116 0.9 2.6 0.00 0.36 0.00 81 1019.7
20260830083704 57 97 0.9 2.6 0.00 0.36 0.00 81 1019.6